Weather History for KAVL - June, 2013

Change the Weather History Date:

Monday, June 17, 2013

  Actual Average Record
Temperature  
Mean Temperature 73 °F 71 °F  
Max Temperature 79 °F 82 °F 92 °F (1936)
Min Temperature 66 °F 60 °F 40 °F (1917)
Degree Days  
Heating Degree Days 0 0  
Month to date heating degree days 0 11  
Since 1 June heating degree days 0 11  
Since 1 July heating degree days 4077 4192  
Cooling Degree Days 8 6  
Month to date cooling degree days 107 84  
Year to date cooling degree days 158 142  
Since 1 June cooling degree days 107 84  
Growing Degree Days 22 (Base 50)    
Moisture  
Dew Point 66 °F    
Average Humidity 85    
Maximum Humidity 100    
Minimum Humidity 69    
Precipitation  
Precipitation 0.64 in 0.16 in 2.00 in (1987)
Month to date precipitation 8.01 2.60  
Year to date precipitation 37.13 20.85  
Snow  
Snow 0.00 in 0.00 in 0.00 in ()
Month to date snowfall 0.0 0.0  
Since 1 June snowfall 0.0 0.0  
Since 1 July snowfall 0.5 9.9  
Snow Depth 0.00 in    
Sea Level Pressure  
Sea Level Pressure 30.02 in    
Wind  
Wind Speed 4 mph (North)    
Max Wind Speed 26 mph    
Max Gust Speed 31 mph    
Visibility 9 miles    
Events Fog , Rain    
T = Trace of Precipitation, MM = Missing Value Source: NWS Daily Summary

Daily Weather History Graph

Daily Weather History Graph

Search for Another Location

Airport or City:

Trip Planner

Search our weather history database for the weather conditions in past years. The results will help you decide how hot, cold, wet, or windy it might be!

Date:

Astronomy

Jun. 17, 2013 Rise Set
Actual Time 6:14 AM EDT 8:47 PM EDT
Civil Twilight 5:44 AM EDT 9:17 PM EDT
Nautical Twilight 5:07 AM EDT 9:54 PM EDT
Astronomical Twilight 4:26 AM EDT 10:35 PM EDT
Moon 2:35 PM EDT (6/17) 1:38 AM EDT (6/17)
Length of Visible Light 15h 32m
Length of Day
14h 32m
First Quarter, 60% of the Moon is Illuminated
Jun 17
First Quarter
Jun 23
Full
Jun 30
Last Quarter
Jul 8
New
Jul 15
First Quarter

Hourly Weather History & Observations

Time (EDT) Temp. Dew Point Humidity Pressure Visibility Wind Dir Wind Speed Gust Speed Precip Events Conditions
12:54 AM 71.1 °F 64.0 °F 78% 30.04 in 10.0 mi SSE 3.5 mph - N/A   Clear
1:54 AM 71.1 °F 64.0 °F 78% 30.03 in 10.0 mi Calm Calm - N/A   Scattered Clouds
2:54 AM 71.1 °F 64.9 °F 81% 30.02 in 10.0 mi SSW 9.2 mph - 0.00 in Rain Light Rain
3:54 AM 69.1 °F 64.9 °F 87% 30.02 in 10.0 mi NNW 4.6 mph - 0.00 in   Overcast
4:14 AM 68.0 °F 64.4 °F 88% 30.11 in 10.0 mi Calm Calm - N/A   Overcast
4:22 AM 68.0 °F 64.4 °F 88% 30.11 in 10.0 mi Calm Calm - N/A   Overcast
4:54 AM 68.0 °F 64.9 °F 90% 30.03 in 10.0 mi Calm Calm - 0.00 in   Overcast
5:20 AM 66.2 °F 64.4 °F 94% 30.11 in 10.0 mi Calm Calm - 0.01 in   Overcast
5:54 AM 66.9 °F 64.9 °F 93% 30.02 in 10.0 mi Calm Calm - 0.01 in   Scattered Clouds
6:54 AM 66.9 °F 66.0 °F 97% 30.02 in 7.0 mi Calm Calm - N/A   Overcast
7:18 AM 66.2 °F 64.4 °F 94% 30.09 in 8.0 mi NW 3.5 mph - N/A   Mostly Cloudy
7:54 AM 68.0 °F 64.9 °F 90% 30.03 in 10.0 mi Calm Calm - N/A   Overcast
8:54 AM 70.0 °F 66.0 °F 87% 30.03 in 9.0 mi Calm Calm - N/A   Mostly Cloudy
9:07 AM 71.6 °F 66.2 °F 83% 30.10 in 10.0 mi Calm Calm - N/A   Scattered Clouds
9:54 AM 73.9 °F 64.0 °F 71% 30.01 in 10.0 mi North 3.5 mph - N/A   Clear
10:54 AM 73.9 °F 64.9 °F 73% 30.01 in 10.0 mi Calm Calm - N/A   Mostly Cloudy
11:54 AM 75.9 °F 66.0 °F 71% 30.02 in 10.0 mi Variable 3.5 mph - N/A   Overcast
12:54 PM 77.0 °F 66.9 °F 71% 30.02 in 10.0 mi NNW 9.2 mph - 0.00 in Rain Light Rain
1:54 PM 75.0 °F 66.0 °F 73% 30.02 in 10.0 mi NNW 8.1 mph - 0.00 in Rain Light Rain
2:54 PM 77.0 °F 66.0 °F 69% 29.99 in 10.0 mi North 5.8 mph - 0.00 in   Scattered Clouds
3:54 PM 75.0 °F 64.9 °F 71% 29.98 in 10.0 mi Variable 3.5 mph - 0.00 in   Scattered Clouds
4:54 PM 77.0 °F 66.9 °F 71% 29.96 in 10.0 mi South 5.8 mph - 0.00 in   Partly Cloudy
5:54 PM 75.9 °F 66.0 °F 71% 29.96 in 10.0 mi Variable 4.6 mph - N/A   Mostly Cloudy
6:54 PM 75.9 °F 66.0 °F 71% 29.96 in 10.0 mi SSW 4.6 mph - N/A   Scattered Clouds
7:54 PM 73.0 °F 64.9 °F 76% 29.97 in 10.0 mi NNW 17.3 mph 21.9 mph N/A   Overcast
7:59 PM 69.8 °F 66.2 °F 88% 30.04 in 1.2 mi NNW 26.5 mph 31.1 mph 0.01 in Rain Rain
8:03 PM 66.2 °F 66.2 °F 100% 30.02 in 0.2 mi NE 12.7 mph 31.1 mph 0.21 in Fog , Rain Heavy Rain
8:09 PM 68.0 °F 66.2 °F 94% 30.03 in 0.5 mi ENE 8.1 mph 17.3 mph 0.54 in Fog , Rain Rain
8:13 PM 68.0 °F 66.2 °F 94% 30.03 in 1.5 mi Calm Calm - 0.59 in Rain Heavy Rain
8:16 PM 68.0 °F 66.2 °F 94% 30.04 in 3.0 mi Variable 3.5 mph - 0.61 in Rain Light Rain
8:26 PM 68.0 °F 66.2 °F 94% 30.03 in 10.0 mi NE 4.6 mph - 0.61 in   Overcast
8:54 PM 66.9 °F 66.9 °F 100% 29.98 in 6.0 mi South 4.6 mph - 0.63 in Rain Light Rain
9:50 PM 66.2 °F 66.2 °F 100% 30.04 in 10.0 mi Calm Calm - 0.00 in   Scattered Clouds
9:54 PM 66.9 °F 66.9 °F 100% 29.97 in 10.0 mi Calm Calm - 0.00 in   Partly Cloudy
10:54 PM 66.9 °F 66.0 °F 97% 29.99 in 10.0 mi Calm Calm - 0.00 in Rain Light Rain
11:08 PM 66.2 °F 66.2 °F 100% 30.05 in 10.0 mi SSE 3.5 mph - 0.00 in Rain Light Rain
11:29 PM 66.2 °F 66.2 °F 100% 30.05 in 10.0 mi Calm Calm - 0.00 in   Mostly Cloudy
11:54 PM 66.9 °F 66.9 °F 100% 29.97 in 10.0 mi Calm Calm - 0.00 in   Mostly Cloudy